| time (UTC) | temp C | wind direction | speed KPH | gust KPH | rain 1hr cm | rain 24hr cm | rain mn cm | humidity % | barometer mb |
| 20260505191507 | 23 | 229 | 0.0 | 3.2 | 0.00 | 0.00 | 0.00 | 80 | 1010.8 |
| 20260505190006 | 23 | 224 | 0.0 | 1.6 | 0.00 | 0.00 | 0.00 | 80 | 1010.8 |
| 20260505184506 | 23 | 213 | 0.0 | 3.2 | 0.00 | 0.00 | 0.00 | 80 | 1010.8 |
| 20260505183005 | 23 | 248 | 0.0 | 1.6 | 0.00 | 0.00 | 0.00 | 80 | 1010.9 |
| 20260505181503 | 24 | 248 | 0.0 | 0.0 | 0.00 | 0.00 | 0.00 | 80 | 1010.9 |
| 20260505180001 | 24 | 248 | 0.0 | 0.0 | 0.00 | 0.00 | 0.00 | 80 | 1011.1 |
| 20260505174600 | 25 | 248 | 0.0 | 0.0 | 0.00 | 0.00 | 0.00 | 79 | 1011.1 |
| 20260505173002 | 25 | 231 | 0.0 | 3.2 | 0.00 | 0.00 | 0.00 | 79 | 1011.1 |
| 20260505171502 | 25 | 223 | 0.0 | 0.0 | 0.00 | 0.00 | 0.00 | 79 | 1011.2 |
| 20260505170003 | 25 | 278 | 0.0 | 0.0 | 0.00 | 0.00 | 0.00 | 79 | 1011.3 |
| 20260505164601 | 25 | 278 | 0.0 | 0.0 | 0.00 | 0.00 | 0.00 | 79 | 1011.4 |
| 20260505163058 | 25 | 279 | 0.0 | 4.8 | 0.00 | 0.00 | 0.00 | 79 | 1011.3 |
| 20260505161621 | 25 | 276 | 0.0 | 6.4 | 0.00 | 0.00 | 0.00 | 78 | 1011.4 |
| 20260505153100 | 26 | 274 | 0.0 | 3.2 | 0.00 | 0.00 | 0.00 | 72 | 1011.7 |
| 20260505151618 | 26 | 275 | 0.0 | 6.4 | 0.00 | 0.00 | 0.00 | 72 | 1011.8 |
| 20260505124508 | 25 | 104 | 0.0 | 0.0 | 0.00 | 0.00 | 0.00 | 76 | 1011.6 |
| 20260505123051 | 25 | 104 | 0.0 | 0.0 | 0.00 | 0.00 | 0.00 | 77 | 1011.7 |
| 20260505121550 | 26 | 104 | 0.0 | 0.0 | 0.00 | 0.00 | 0.00 | 79 | 1011.7 |
| 20260505120105 | 26 | 104 | 0.0 | 0.0 | 0.00 | 0.00 | 0.00 | 80 | 1011.7 |
| 20260505114547 | 26 | 104 | 0.0 | 0.0 | 0.00 | 0.00 | 0.00 | 80 | 1011.5 |
| 20260505113048 | 26 | 104 | 0.0 | 0.0 | 0.00 | 0.00 | 0.00 | 79 | 1011.5 |
| 20260505111545 | 26 | 104 | 0.0 | 0.0 | 0.00 | 0.00 | 0.00 | 79 | 1011.4 |
| 20260505101541 | 27 | 104 | 0.0 | 1.6 | 0.00 | 0.00 | 0.00 | 77 | 1010.8 |
| 20260505100042 | 27 | 161 | 0.0 | 0.0 | 0.00 | 0.00 | 0.00 | 76 | 1010.7 |
| 20260505094540 | 27 | 191 | 0.0 | 3.2 | 0.00 | 0.00 | 0.00 | 75 | 1010.6 |
| 20260505093042 | 28 | 184 | 0.0 | 1.6 | 0.00 | 0.00 | 0.00 | 74 | 1010.4 |
| 20260505091539 | 28 | 199 | 0.0 | 6.4 | 0.00 | 0.00 | 0.00 | 73 | 1010.3 |
| 20260505090045 | 28 | 195 | 0.0 | 4.8 | 0.00 | 0.00 | 0.00 | 72 | 1010.2 |
| 20260505084538 | 30 | 111 | 0.0 | 4.8 | 0.00 | 0.00 | 0.00 | 69 | 1010.2 |
| 20260505083037 | 30 | 163 | 0.0 | 8.0 | 0.00 | 0.00 | 0.00 | 66 | 1010.0 |
| 20260505081540 | 31 | 149 | 0.0 | 8.0 | 0.00 | 0.00 | 0.00 | 65 | 1009.9 |
| 20260505080038 | 32 | 121 | 0.0 | 4.8 | 0.00 | 0.00 | 0.00 | 52 | 1009.7 |
| 20260505074535 | 32 | 200 | 0.0 | 8.0 | 0.00 | 0.00 | 0.00 | 50 | 1009.6 |
| 20260505073052 | 32 | 189 | 1.6 | 20.9 | 0.00 | 0.00 | 0.00 | 49 | 1009.5 |
| 20260505071535 | 32 | 280 | 0.0 | 8.0 | 0.00 | 0.00 | 0.00 | 51 | 1009.5 |
| 20260505070035 | 32 | 235 | 3.2 | 14.5 | 0.00 | 0.00 | 0.00 | 51 | 1009.3 |
| 20260505064540 | 33 | 226 | 6.4 | 12.9 | 0.00 | 0.00 | 0.00 | 51 | 1009.1 |
| 20260505063038 | 33 | 210 | 3.2 | 12.9 | 0.00 | 0.00 | 0.00 | 50 | 1009.1 |
| 20260505061548 | 33 | 239 | 0.0 | 12.9 | 0.00 | 0.00 | 0.00 | 50 | 1009.1 |
| 20260505060036 | 33 | 216 | 6.4 | 17.7 | 0.00 | 0.00 | 0.00 | 49 | 1009.1 |
| 20260505054557 | 33 | 247 | 3.2 | 9.7 | 0.00 | 0.00 | 0.00 | 50 | 1009.3 |
| 20260505053032 | 33 | 187 | 4.8 | 12.9 | 0.00 | 0.00 | 0.00 | 48 | 1009.2 |
| 20260505051526 | 33 | 202 | 3.2 | 16.1 | 0.00 | 0.00 | 0.00 | 52 | 1009.4 |
| 20260505041520 | 32 | 188 | 8.0 | 16.1 | 0.00 | 0.00 | 0.00 | 52 | 1010.0 |
| 20260505040019 | 32 | 215 | 11.3 | 20.9 | 0.00 | 0.00 | 0.00 | 52 | 1010.3 |
| 20260505034516 | 32 | 241 | 4.8 | 17.7 | 0.00 | 0.00 | 0.00 | 53 | 1010.5 |
| 20260505033014 | 32 | 206 | 0.0 | 12.9 | 0.00 | 0.00 | 0.00 | 53 | 1010.7 |
| 20260505031529 | 32 | 208 | 3.2 | 12.9 | 0.00 | 0.00 | 0.00 | 55 | 1010.9 |
| 20260505030009 | 32 | 232 | 6.4 | 17.7 | 0.00 | 0.00 | 0.00 | 54 | 1011.2 |
| 20260505024510 | 31 | 211 | 3.2 | 14.5 | 0.00 | 0.00 | 0.00 | 57 | 1011.3 |
| 20260505023006 | 31 | 236 | 1.6 | 12.9 | 0.00 | 0.00 | 0.00 | 58 | 1011.5 |
| 20260505021502 | 31 | 207 | 4.8 | 19.3 | 0.00 | 0.00 | 0.00 | 61 | 1011.9 |
| 20260505020058 | 30 | 232 | 4.8 | 14.5 | 0.00 | 0.00 | 0.00 | 62 | 1012.2 |
| 20260505014605 | 31 | 238 | 4.8 | 16.1 | 0.00 | 0.00 | 0.00 | 61 | 1012.5 |
| 20260505013107 | 31 | 178 | 3.2 | 12.9 | 0.00 | 0.00 | 0.00 | 62 | 1012.6 |
| 20260505011552 | 30 | 192 | 3.2 | 14.5 | 0.00 | 0.00 | 0.00 | 65 | 1012.7 |
| 20260505010050 | 30 | 249 | 3.2 | 12.9 | 0.00 | 0.00 | 0.00 | 68 | 1012.8 |
| 20260505004554 | 30 | 183 | 1.6 | 20.9 | 0.00 | 0.00 | 0.00 | 71 | 1012.8 |
| 20260505003047 | 29 | 240 | 1.6 | 12.9 | 0.00 | 0.00 | 0.00 | 72 | 1012.8 |
| 20260505001550 | 29 | 180 | 1.6 | 9.7 | 0.00 | 0.00 | 0.00 | 74 | 1012.9 |
| 20260505000100 | 29 | 218 | 0.0 | 4.8 | 0.00 | 0.00 | 0.00 | 76 | 1012.9 |
| 20260504234541 | 28 | 26 | 0.0 | 6.4 | 0.00 | 0.00 | 0.00 | 78 | 1012.8 |
| 20260504233051 | 28 | 247 | 1.6 | 8.0 | 0.00 | 0.00 | 0.00 | 78 | 1012.7 |
| 20260504231546 | 28 | 249 | 0.0 | 6.4 | 0.00 | 0.00 | 0.00 | 78 | 1012.8 |
| 20260504230100 | 27 | 225 | 0.0 | 3.2 | 0.00 | 0.00 | 0.00 | 76 | 1012.9 |
| 20260504224540 | 27 | 221 | 1.6 | 6.4 | 0.00 | 0.00 | 0.00 | 70 | 1012.8 |
| 20260504223007 | 26 | 213 | 0.0 | 6.4 | 0.00 | 0.00 | 0.00 | 18 | 1012.6 |
| 20260504221509 | 25 | 56 | 0.0 | 0.0 | 0.00 | 0.00 | 0.00 | 7 | 1012.5 |